Other Public Products
Issued by NWS Grand Forks, ND

Home | Current Version | Previous Version | Text Only | Print | Product List | Glossary On
Versions: 1 2 3 4 5 6 7 8 9 10 11 12 13 14 15 16 17 18 19 20 21 22 23 24 25 26 27 28 29 30 31 32 33 34 35 36 37 38 39 40 41 42 43 44 45 46 47 48 49 50
000
FPUS83 KFGF 241310
OPUFGF
PRAIRIE TO PINES WEATHER ROUNDUP
NATIONAL WEATHER SERVICE EASTERN NORTH DAKOTA/GRAND FORKS ND
700 AM CST FRI FEB 24 2017

 **SATELLITE DATA USED TO AUGMENT SKY COVER AT AUTOMATED STATIONS**
 *****  WEATHER ACROSS EASTERN NORTH DAKOTA  *****

CITY           SKY/WX    TMP DP  RH WIND       PRES   REMARKS
GRAND FORKS    CLOUDY    17   7  64 NE7       30.14S WCI   8
GRAND FORKS AF CLOUDY    16  13  86 E6        30.14F WCI   8
GRAND CITY NWS NOT AVBL
BUXTON         NOT AVBL
DEVILS LAKE    FAIR      14  11  87 NW12      30.11S WCI   0
FARGO          FAIR      19  11  70 N12       30.10F WCI   7
WAHPETON ARPT  FAIR      19  10  68 N16G23    30.07S WCI   5
$$

 *****  WEATHER ACROSS CENTRAL AND WESTERN NORTH DAKOTA  *****

CITY           SKY/WX    TMP DP  RH WIND       PRES   REMARKS
JAMESTOWN      FAIR      17  14  88 NW6       30.09R WCI   9
BISMARCK       CLOUDY    19  13  77 NW7       30.14R WCI  10
MINOT          FAIR      17  11  77 NW5       30.14R WCI  10
MINOT AFB      NOT AVBL
GARRISON         N/A     19  14  81 N6        30.12S WCI  11
WILLISTON      CLOUDY    18  15  88 CALM      30.14S
DICKINSON      FAIR       4   0  83 CALM      30.07R
HETTINGER      FAIR      13   8  81 CALM      30.09S
$$

 *****  OTHER OBSERVATIONS NORTHEAST NORTH DAKOTA  *****

CITY           SKY/WX    TMP DP  RH WIND       PRES   REMARKS
WALHALLA       NOT AVBL
LANGDON        NOT AVBL
CAVALIER         N/A     14   9  79 N6        30.17R WCI   5
GRAFTON        PTSUNNY   12   9  85 N6        30.17S WCI   3
CANDO          NOT AVBL
FORT TOTTEN      N/A     15  15  98 NW5       29.95S WCI   7
ROLLA          FAIR      10   7  85 N14       30.12R WCI  -5
RUGBY            N/A      5   5 100 W5        30.13S WCI  -4
 ***** THE ABOVE OBSERVATIONS ARE NON NWS ARE NOT QUALITY
        CONTROLLED AND MAY MIS-REPORT RAIN FOR SNOW...
$$

 *****  OTHER OBSERVATIONS SOUTHEAST NORTH DAKOTA *****

CITY           SKY/WX    TMP DP  RH WIND       PRES   REMARKS
COOPERSTOWN    FAIR      18  16  93 N6        30.09F WCI   9
VALLEY CITY    CLOUDY    18  18 100 NE6       30.11S WCI   9
OAKES          NOT AVBL
GWINNER        FAIR      19  18  93 N14       30.09R WCI   6
SHEYENNE NWR     N/A     18  12  77 N7        29.95S WCI   9
BUFFALO        NOT AVBL
WYNDMERE       NOT AVBL
 ***** THE ABOVE OBSERVATIONS ARE NON NWS ARE NOT QUALITY
       CONTROLLED AND MAY MIS-REPORT RAIN FOR SNOW...
$$

  *****  WEATHER ACROSS NORTHERN MINNESOTA  *****

CITY           SKY/WX    TMP DP  RH WIND       PRES   REMARKS
FLAG ISLAND    FAIR       3   1  92 NW5       30.10R WCI  -6
WARROAD        FAIR       3   0  85 NW3       30.11S
ROSEAU         FAIR       3   0  85 NW3       30.12R
HALLOCK        CLOUDY    12   7  79 N8        30.15S WCI   1
THF RVR FALLS  FAIR      10   4  76 N8        30.11F WCI  -2
HALSTAD          N/A     17   9  70 NE13        N/A  WCI   3
FOSSTON        FAIR       9   5  85 N10       30.08S WCI  -6
BAUDETTE       FAIR       2  -1  88 NW6       30.08S WCI  -9
WASKISH        FAIR       7   3  85 N5        30.06S WCI  -2
CROOKSTON      FAIR      14   7  73 N6        30.14S WCI   5
$$
  *****  WEATHER ACROSS CENTRAL AND WEST MINNESOTA  *****

CITY           SKY/WX    TMP DP  RH WIND       PRES   REMARKS
BEMIDJI        FAIR       7   4  87 N5        30.03F WCI  -2
PARK RAPIDS    FAIR      12   3  67 N12       30.00S WCI  -2
WADENA         FAIR      12   9  85 N10       29.99R WCI  -1
DETROIT LAKES  FAIR      14   9  79 N5        30.04S WCI   6
MOORHEAD       FAIR      18   9  68 N14       30.10S WCI   4
FERGUS FALLS   FAIR      16   9  73 N13G18    30.08R WCI   2
ELBOW LAKE     FAIR      17  10  74 N12G18    30.01S WCI   4
MORRIS MN      FAIR      19  12  73 N20       29.98S WCI   4
STAPLES        FAIR      14   9  79 N12       29.98S WCI   0
WHEATON        FAIR      18  10  73 N17G25    30.06S WCI   2
$$
  *****  WEATHER ELSEWHERE ACROSS MINNESOTA  *****

CITY           SKY/WX    TMP DP  RH WIND       PRES   REMARKS
DULUTH         CLOUDY    17  11  77 N10       29.92F WCI   5
INTRNTL FALLS  FAIR       8   2  76 N6        30.05F WCI  -2
ELY            FAIR      10   3  72 NE6       29.97S WCI   1
CLOQUET        CLOUDY    18  12  79 N8        29.92F WCI   7
BRAINERD       FAIR      16   9  74 N14       29.97S WCI   2
HIBBING        FAIR      12   6  77 N10       29.97S WCI  -1
ALEXANDRIA     FAIR      17   9  70 N15G23    29.96S WCI   2
SAINT CLOUD    MOCLDY    21  12  68 N20G28    29.90S WCI   6
MINNEAPOLIS    CLOUDY    25  15  66 N14G23    29.82R WCI  13
$$

  *****  WEATHER ACROSS SOUTH DAKOTA  *****

CITY           SKY/WX    TMP DP  RH WIND       PRES   REMARKS
SIOUX FALLS    LGT SNOW  21  17  84 N26G33    29.87R FOG     WCI   4
BROOKINGS      FAIR      19  13  77 N18G26    29.90R WCI   4
WATERTOWN      FAIR      18  10  71 N23G37    29.94R WCI   0
HURON          FAIR      20  13  74 N24G33    30.00R WCI   3
SISSETON         N/A     19  13  77 N22       30.04R WCI   2
ABERDEEN       FAIR      19  12  74 N16       30.07R WCI   4
MITCHELL       CLOUDY    22  16  78 N22G32    29.98R WCI   6
PIERRE         FAIR      20  14  77 N15       30.07R WCI   6
MOBRIDGE       FAIR      19  13  77 MISG      30.07R
RAPID CITY     CLOUDY    18  14  84 N16       30.03R WCI   3
$$

  *****  SOME WEATHER IN NEARBY STATES *****

CITY           SKY/WX    TMP DP  RH WIND       PRES   REMARKS
GLASGOW MT     CLOUDY    24  20  84 SE8       30.09S WCI  15
GREAT FALLS MT CLOUDY    24  21  88 CALM      29.96S
CHEYENNE WY    LGT SNOW  13  10  88 N6        29.83R FOG     WCI   4
SCOTTSBLUFF NE CLOUDY    20  15  81 N10       29.94R WCI   9
OMAHA NE       FRZ RAIN  29  25  85 N20G29    29.69R FOG     WCI  16
DES MOINES IA  LGT RAIN  35  33  92 N9        29.59R FOG
DAVENPORT IA   CLOUDY    38  36  92 NE16      29.44F
CHICAGO IL     CLOUDY    40  38  93 N12       29.47F
EAU CLAIRE WI  LGT SNOW  27  25  92 N10       29.75F VSB 3/4 WCI  17
LA CROSSE WI   LGT SNOW  31  27  85 N15G24    29.68F FOG     WCI  20
$$

  *****  SOME NATIONAL WEATHER *****

CITY           SKY/WX    TMP DP  RH WIND       PRES   REMARKS
LA GUARDIA NY  FAIR      55  48  77 S7        29.94R
RALEIGH NC     FAIR      53  51  93 CALM      29.94R
ATLANTA GA     FAIR      57  54  89 CALM      29.91R
NEW ORLEANS LA MOCLDY    63  63 100 SE6       29.79R
OKLAHOMA CITY  FAIR      37  28  70 N22G31    29.79R
ALBUQUERQUE NM FAIR      32  18  56 NW7       29.92R
SALT LAKE CITY LGT SNOW  25  23  92 W8        29.98R FOG     WCI  16
LOS ANGELES CA FAIR      47  24  40 N6        30.12R
BOISE ID       NOT AVBL
SEATTLE WA     MOCLDY    34  30  85 S6        30.14S
$$

*** WEATHER ACROSS MANITOBA...SASKATCHEWAN AND ONTARIO ***
                ***ONTARIO***

CITY           SKY/WX    TMP DP  RH WIND       PRES   REMARKS
GERALDTON      MOCLDY    -2  -8  78 N6        30.05F WCI -14
THUNDER BAY    MOCLDY     9   0  66 NE8       30.08R WCI  -4
SIOUX LOOKOUT  MOCLDY    -2  -6  84 VRB2      30.08S
TORONTO        LGT RAIN  39  37  93 E15G23    29.77F
BIG TROUT LK   CLOUDY   -15 -18  84 N3        30.20S
PICKLE LAKE    FLURRIES  -4  -8  84 N3        30.11R
DRYDEN         CLEAR      1  -2  85 E2        30.07S
KENORA         PTCLDY     1  -2  85 NE5       30.08R WCI  -8
$$
                *** MANITOBA***

CITY           SKY/WX    TMP DP  RH WIND       PRES   REMARKS
BRANDON        MOCLDY    12   9  85 N6        30.16R WCI   3
DAUPHIN        CLEAR     10   9  92 N3        30.18S
ISLAND LAKE    FLURRIES -11 -17  77 CALM      30.22F
PILOT MOUND      N/A     14  12  92 NE5         N/A  WCI   6
THE PAS        PTCLDY    -2  -8  78 E2        30.19S
THOMPSON       MOCLDY   -17 -22  76 NE3       30.26S
WINNIPEG       PTCLDY     5  -2  72 NE7       30.19R WCI  -7
LYNN LAKE      PTCLDY   -24 -29  76 CALM      30.18S
CHURCHILL      MOCLDY   -20 -24  83 W7        30.37R WCI -37
GILLAM         MOCLDY   -15 -20  76 NE3       30.31S
$$
                ***SASKATCHEWAN***

CITY           SKY/WX    TMP DP  RH WIND       PRES   REMARKS
ESTEVAN        PTCLDY    12  12 100 SW6       30.12S WCI   3
KINDERSLEY     MOCLDY    18  16  93 S3        30.04S
LLOYDMINSTER   CLOUDY    12  10  92 W5        30.05S WCI   4
PRINCE ALBERT  FLURRIES   7   3  85 SW3       30.12R
REGINA         PTCLDY    18  16  93 W6        30.11S WCI   9
YORKTON        CLOUDY    14  10  85 VRB2      30.12F



USA.gov is the U.S. government's official web portal to all federal, state and local government web resources and services.